�v������,���r���O(���x),�����t���O,���r���O(���x),�����t���O,��1(���x),�����t���O,��2���x),�����t���O,�������x,�����t���O
5/1/2003 0:00,24,1,43.1,1,21,1,20.6,1,16.9,1
5/1/2003 0:15,23.9,1,43.6,1,20.9,1,20.5,1,17,1
5/1/2003 0:30,23.9,1,42.1,1,20.9,1,20.4,1,16.9,1
5/1/2003 0:45,23.7,1,40.5,1,20.8,1,20.4,1,17,1
5/1/2003 1:00,23.6,1,40.2,1,20.7,1,20.3,1,17,1
5/1/2003 1:15,23.5,1,39,1,20.7,1,20.2,1,17,1
5/1/2003 1:30,23.4,1,38.8,1,20.6,1,20.1,1,17,1
5/1/2003 1:45,23.3,1,38.5,1,20.5,1,20,1,17,1
5/1/2003 2:00,23.3,1,38.1,1,20.4,1,19.9,1,17,1
5/1/2003 2:15,23.2,1,37.4,1,20.3,1,19.8,1,17.1,1
5/1/2003 2:30,23,1,37.3,1,20.3,1,19.8,1,17,1
5/1/2003 2:45,22.9,1,37.7,1,20.2,1,19.7,1,17,1
5/1/2003 3:00,22.8,1,37.4,1,20.1,1,19.6,1,17.1,1
5/1/2003 3:15,22.7,1,37,1,20,1,19.5,1,17.1,1
5/1/2003 3:30,22.6,1,37,1,19.9,1,19.4,1,17,1
5/1/2003 3:45,22.5,1,37.5,1,19.9,1,19.3,1,16.9,1
5/1/2003 4:00,22.5,1,37,1,19.8,1,19.2,1,16.9,1
5/1/2003 4:15,22.4,1,36.2,1,19.7,1,19.1,1,17,1
5/1/2003 4:30,22.2,1,36.3,1,19.6,1,19,1,16.8,1
5/1/2003 4:45,22.1,1,35.2,1,19.5,1,18.9,1,16.8,1
5/1/2003 5:00,22,1,34.6,1,19.4,1,18.8,1,16.8,1
5/1/2003 5:15,21.9,1,34,1,19.3,1,18.7,1,16.8,1
5/1/2003 5:30,21.8,1,34.3,1,19.2,1,18.6,1,16.8,1
5/1/2003 5:45,21.7,1,35.1,1,19.2,1,18.6,1,16.8,1
5/1/2003 6:00,21.6,1,34.3,1,19.1,1,18.6,1,16.7,1
5/1/2003 6:15,21.6,1,32.9,1,19.2,1,18.6,1,16.7,1
5/1/2003 6:30,21.1,1,28.7,1,19,1,18.5,1,16.1,1
5/1/2003 6:45,20.5,1,24.1,1,18.6,1,18.4,1,15.9,1
5/1/2003 7:00,20.6,1,26,1,18.5,1,18.2,1,15.9,1
5/1/2003 7:15,20.5,1,24.8,1,18.5,1,18.1,1,16,1
5/1/2003 7:30,20.4,1,26.1,1,18.5,1,18.1,1,16.1,1
5/1/2003 7:45,20.2,1,26,1,18.4,1,18,1,16.3,1
5/1/2003 8:00,20.2,1,26.7,1,18.4,1,17.9,1,16.4,1
5/1/2003 8:15,19.9,1,22.6,1,18.4,1,17.9,1,16.4,1
5/1/2003 8:30,20,1,21.8,1,18.2,1,18,1,16.4,1
5/1/2003 8:45,19.9,1,22.7,1,18.1,1,18,1,16.1,1
5/1/2003 9:00,20,1,23.9,1,18.1,1,18.1,1,16,1
5/1/2003 9:15,20,1,24,1,18.1,1,18.3,1,16,1
5/1/2003 9:30,20,1,23.4,1,18.2,1,18.4,1,16.1,1
5/1/2003 9:45,19.9,1,23.6,1,18.2,1,18.5,1,16.2,1
5/1/2003 10:00,20,1,25.6,1,18.4,1,18.7,1,16.2,1
5/1/2003 10:15,20.2,1,27,1,18.6,1,18.9,1,16.3,1
5/1/2003 10:30,20.2,1,27.6,1,18.7,1,19,1,16.3,1
5/1/2003 10:45,20.3,1,28.9,1,18.8,1,19.2,1,16.4,1
5/1/2003 11:00,20.3,1,29.2,1,18.9,1,19.3,1,16.4,1
5/1/2003 11:15,20.4,1,28.3,1,19.1,1,19.5,1,16.5,1
5/1/2003 11:30,20.5,1,28.8,1,19.2,1,19.6,1,16.5,1
5/1/2003 11:45,20.6,1,29.1,1,19.4,1,19.8,1,16.5,1
5/1/2003 12:00,20.6,1,29.9,1,19.5,1,20,1,16.5,1
5/1/2003 12:15,20.7,1,30.4,1,19.6,1,20.2,1,16.6,1
5/1/2003 12:30,20.8,1,27.8,1,19.7,1,20.6,1,16.6,1
5/1/2003 12:45,20.9,1,30.8,1,19.9,1,20.9,1,16.7,1
5/1/2003 13:00,20.9,1,28.1,1,20.2,1,21,1,16.7,1
5/1/2003 13:15,20.9,1,29.8,1,20.5,1,21.2,1,16.8,1
5/1/2003 13:30,21.1,1,31.4,1,20.8,1,21.4,1,16,1
5/1/2003 13:45,21.4,1,31.8,1,21,1,21.7,1,16.2,1
5/1/2003 14:00,21.5,1,31.5,1,21.2,1,21.9,1,16.3,1
5/1/2003 14:15,21.6,1,32.4,1,21.4,1,22.2,1,16.4,1
5/1/2003 14:30,21.7,1,33.9,1,21.7,1,22.5,1,16.4,1
5/1/2003 14:45,21.8,1,32.1,1,21.9,1,22.7,1,16.2,1
5/1/2003 15:00,22,1,32,1,21.9,1,23,1,16.3,1
5/1/2003 15:15,22.2,1,32.1,1,21.9,1,23.2,1,16.4,1
5/1/2003 15:30,22.3,1,32.2,1,22,1,23.4,1,16.5,1
5/1/2003 15:45,22.4,1,31.5,1,22,1,23.6,1,16.7,1
5/1/2003 16:00,22.5,1,30,1,22,1,23.8,1,16.7,1
5/1/2003 16:15,22.5,1,30.8,1,22,1,23.9,1,16.8,1
5/1/2003 16:30,22.6,1,30.6,1,22,1,24,1,16.9,1
5/1/2003 16:45,22.6,1,30.2,1,21.9,1,24.1,1,17,1
5/1/2003 17:00,22.6,1,30.6,1,21.8,1,24.1,1,17,1
5/1/2003 17:15,22.7,1,30.4,1,21.7,1,24.1,1,17.1,1
5/1/2003 17:30,22.7,1,31.1,1,21.5,1,24,1,17.1,1
5/1/2003 17:45,22.7,1,29.6,1,21.4,1,23.9,1,17.2,1
5/1/2003 18:00,22.7,1,31.1,1,21.2,1,23.8,1,17.2,1
5/1/2003 18:15,22.7,1,31.7,1,21,1,23.6,1,17.3,1
5/1/2003 18:30,22.7,1,32.1,1,20.8,1,23.4,1,17.3,1
5/1/2003 18:45,22.7,1,31.2,1,20.6,1,23.3,1,17.4,1
5/1/2003 19:00,22.7,1,32.5,1,20.5,1,23.1,1,17.4,1
5/1/2003 19:15,22.6,1,32.5,1,20.3,1,22.9,1,17.4,1
5/1/2003 19:30,22.6,1,32.8,1,20.2,1,22.8,1,17.5,1
5/1/2003 19:45,22.5,1,29.7,1,20.1,1,22.6,1,17.5,1
5/1/2003 20:00,22.5,1,32.8,1,19.9,1,22.4,1,17.5,1
5/1/2003 20:15,22.5,1,33.1,1,19.8,1,22.3,1,17.5,1
5/1/2003 20:30,22.4,1,33.5,1,19.7,1,22.1,1,17.5,1
5/1/2003 20:45,22.4,1,33.7,1,19.7,1,22,1,17.5,1
5/1/2003 21:00,22.5,1,36,1,19.6,1,21.8,1,17.1,1
5/1/2003 21:15,22.6,1,40.5,1,19.5,1,21.7,1,17.1,1
5/1/2003 21:30,22.7,1,41.2,1,19.5,1,21.6,1,17.2,1
5/1/2003 21:45,22.6,1,39.7,1,19.5,1,21.5,1,17.3,1
5/1/2003 22:00,22.6,1,38.9,1,19.4,1,21.4,1,17.4,1
5/1/2003 22:15,22.5,1,38.4,1,19.4,1,21.2,1,17.4,1
5/1/2003 22:30,22.5,1,39.1,1,19.4,1,21.1,1,17.4,1
5/1/2003 22:45,22.5,1,39.1,1,19.4,1,21,1,16.7,1
5/1/2003 23:00,22.5,1,39,1,19.3,1,20.9,1,16.8,1
5/1/2003 23:15,22.6,1,41.5,1,19.3,1,20.8,1,16.5,1
5/1/2003 23:30,22.6,1,40.7,1,19.3,1,20.7,1,16.5,1
5/1/2003 23:45,22.6,1,41.4,1,19.3,1,20.6,1,16.5,1
5/2/2003 0:00,22.5,1,41.2,1,19.3,1,20.5,1,16.5,1
5/2/2003 0:15,22.5,1,41.4,1,19.3,1,20.4,1,16.5,1
5/2/2003 0:30,22.5,1,41.2,1,19.3,1,20.3,1,16.5,1
5/2/2003 0:45,22.4,1,40.7,1,19.3,1,20.2,1,16.2,1
5/2/2003 1:00,22.3,1,39.5,1,19.3,1,20,1,16.3,1
5/2/2003 1:15,22.1,1,38.8,1,19.3,1,19.9,1,16.3,1
5/2/2003 1:30,21.9,1,38.5,1,19.2,1,19.8,1,16.4,1
5/2/2003 1:45,21.8,1,38.3,1,19.2,1,19.7,1,16.3,1
5/2/2003 2:00,21.6,1,38.2,1,19.1,1,19.5,1,16.3,1
5/2/2003 2:15,21.6,1,38.6,1,19.1,1,19.4,1,16.3,1
5/2/2003 2:30,21.5,1,38.5,1,19.1,1,19.3,1,16.3,1
5/2/2003 2:45,21.4,1,36.7,1,19.1,1,19.1,1,16.3,1
5/2/2003 3:00,21.3,1,38.5,1,19,1,19,1,16.3,1
5/2/2003 3:15,21.2,1,38.4,1,19,1,18.9,1,16.2,1
5/2/2003 3:30,21.1,1,38.3,1,18.9,1,18.8,1,16.2,1
5/2/2003 3:45,21,1,38.2,1,18.8,1,18.6,1,16.2,1
5/2/2003 4:00,20.9,1,38.4,1,18.7,1,18.5,1,16.2,1
5/2/2003 4:15,20.8,1,38.6,1,18.6,1,18.4,1,16.1,1
5/2/2003 4:30,20.8,1,37.1,1,18.5,1,18.3,1,16,1
5/2/2003 4:45,20.7,1,38.7,1,18.4,1,18.1,1,15.9,1
5/2/2003 5:00,20.6,1,38.9,1,18.4,1,18,1,15.9,1
5/2/2003 5:15,20.5,1,39.2,1,18.3,1,17.9,1,15.9,1
5/2/2003 5:30,20.4,1,39.4,1,18.2,1,17.9,1,15.9,1
5/2/2003 5:45,20.4,1,40.8,1,18.2,1,17.8,1,15.9,1
5/2/2003 6:00,20.5,1,42.9,1,18.1,1,17.8,1,15.8,1
5/2/2003 6:15,20.6,1,43.6,1,18.1,1,17.8,1,15.5,1
5/2/2003 6:30,20.6,1,43.5,1,18.3,1,17.8,1,15.5,1
5/2/2003 6:45,20.6,1,43,1,18.5,1,17.8,1,15.6,1
5/2/2003 7:00,20.7,1,43.4,1,18.6,1,17.9,1,15.7,1
5/2/2003 7:15,20.8,1,43.1,1,18.8,1,18,1,15.8,1
5/2/2003 7:30,20.8,1,43.2,1,19,1,18.1,1,15.8,1
5/2/2003 7:45,20.9,1,42.4,1,19.1,1,18.2,1,15.8,1
5/2/2003 8:00,20.9,1,42,1,19.3,1,18.3,1,15.9,1
5/2/2003 8:15,21,1,42.1,1,19.4,1,18.4,1,16,1
5/2/2003 8:30,21,1,42.5,1,19.6,1,18.6,1,16.1,1
5/2/2003 8:45,21.1,1,42,1,19.7,1,18.7,1,16.2,1
5/2/2003 9:00,21,1,38.5,1,19.6,1,18.8,1,16.1,1
5/2/2003 9:15,20.9,1,38.8,1,19.3,1,18.8,1,16.3,1
5/2/2003 9:30,20.9,1,39,1,19.2,1,18.8,1,16.4,1
5/2/2003 9:45,21,1,39.6,1,19.2,1,18.7,1,16.5,1
5/2/2003 10:00,21.1,1,40.8,1,19.4,1,18.8,1,16.5,1
5/2/2003 10:15,21.1,1,41.3,1,19.6,1,18.9,1,16.6,1
5/2/2003 10:30,21.3,1,42.3,1,19.7,1,19.2,1,16.4,1
5/2/2003 10:45,21.4,1,42.6,1,19.9,1,19.4,1,16.5,1
5/2/2003 11:00,21.5,1,42.9,1,20,1,19.6,1,16.5,1
5/2/2003 11:15,21.6,1,43.2,1,20.2,1,19.9,1,16.6,1
5/2/2003 11:30,21.7,1,43.5,1,20.3,1,20.2,1,16.7,1
5/2/2003 11:45,21.8,1,43.8,1,20.5,1,20.5,1,16.7,1
5/2/2003 12:00,21.9,1,43.9,1,20.7,1,20.9,1,16.8,1
5/2/2003 12:15,22,1,44.1,1,20.8,1,21.2,1,16.8,1
5/2/2003 12:30,22.1,1,44.2,1,21,1,21.5,1,16.9,1
5/2/2003 12:45,22.2,1,44.3,1,21.2,1,21.9,1,17,1
5/2/2003 13:00,22.3,1,44.4,1,21.4,1,22.2,1,17,1
5/2/2003 13:15,22.4,1,43.8,1,21.8,1,22.5,1,17,1
5/2/2003 13:30,22.5,1,44,1,22.1,1,22.8,1,16.5,1
5/2/2003 13:45,22.6,1,44.1,1,22.4,1,23.1,1,16.7,1
5/2/2003 14:00,22.7,1,44.3,1,22.5,1,23.3,1,16.9,1
5/2/2003 14:15,22.9,1,44.3,1,22.7,1,23.6,1,17,1
5/2/2003 14:30,23,1,44.8,1,22.9,1,23.8,1,17.1,1
5/2/2003 14:45,23.2,1,45.3,1,23.1,1,24.1,1,17.2,1
5/2/2003 15:00,23.3,1,45.3,1,23.2,1,24.3,1,17.3,1
5/2/2003 15:15,23.4,1,45.4,1,23.2,1,24.5,1,17.4,1
5/2/2003 15:30,23.5,1,45.4,1,23.2,1,24.6,1,17.5,1
5/2/2003 15:45,23.6,1,45.5,1,23.3,1,24.8,1,17.5,1
5/2/2003 16:00,23.7,1,45.4,1,23.3,1,24.9,1,17.6,1
5/2/2003 16:15,23.8,1,45.4,1,23.3,1,25,1,17.7,1
5/2/2003 16:30,23.9,1,45.4,1,23.3,1,25.1,1,17.8,1
5/2/2003 16:45,24.1,1,45.4,1,23.2,1,25.1,1,17.8,1
5/2/2003 17:00,24.1,1,45.3,1,23.1,1,25.2,1,17.9,1
5/2/2003 17:15,24.2,1,45.3,1,23,1,25.1,1,18,1
5/2/2003 17:30,24.2,1,45.1,1,23,1,25.1,1,18,1
5/2/2003 17:45,24.2,1,45,1,22.8,1,25,1,18.1,1
5/2/2003 18:00,24.3,1,45,1,22.7,1,24.9,1,18.1,1
5/2/2003 18:15,24.2,1,44.9,1,22.6,1,24.8,1,18.2,1
5/2/2003 18:30,24.3,1,44.8,1,22.5,1,24.7,1,18.3,1
5/2/2003 18:45,24.3,1,44.9,1,22.4,1,24.6,1,18.3,1
5/2/2003 19:00,24.3,1,45.2,1,22.3,1,24.5,1,18.4,1
5/2/2003 19:15,24.4,1,46.2,1,22.2,1,24.4,1,17.5,1
5/2/2003 19:30,24.5,1,46.7,1,22.1,1,24.2,1,17.5,1
5/2/2003 19:45,24.5,1,47,1,22.1,1,24.1,1,17.8,1
5/2/2003 20:00,24.6,1,46.9,1,22.1,1,24,1,17.9,1
5/2/2003 20:15,24.6,1,45.9,1,22.1,1,23.9,1,18,1
5/2/2003 20:30,24.5,1,46.2,1,22.1,1,23.8,1,18.1,1
5/2/2003 20:45,24.6,1,46.1,1,22.2,1,23.7,1,18.2,1
5/2/2003 21:00,24.6,1,46.1,1,22.2,1,23.6,1,18.3,1
5/2/2003 21:15,24.6,1,46.1,1,22.2,1,23.5,1,18.3,1
5/2/2003 21:30,24.6,1,46.1,1,22.2,1,23.4,1,18.4,1
5/2/2003 21:45,24.6,1,44.4,1,22.2,1,23.3,1,18.4,1
5/2/2003 22:00,24.6,1,45.2,1,22.1,1,23.2,1,18.4,1
5/2/2003 22:15,24.6,1,46.4,1,22.1,1,23.1,1,18.5,1
5/2/2003 22:30,24.7,1,46.9,1,22,1,23,1,18.5,1
5/2/2003 22:45,24.7,1,47,1,21.9,1,22.9,1,18.6,1
5/2/2003 23:00,24.7,1,46.3,1,21.9,1,22.8,1,18.6,1
5/2/2003 23:15,24.7,1,48.4,1,22,1,22.7,1,18.7,1
5/2/2003 23:30,24.8,1,50.2,1,22,1,22.7,1,18.6,1
5/2/2003 23:45,24.8,1,50.4,1,22,1,22.6,1,18.7,1
5/3/2003 0:00,24.7,1,49.3,1,22,1,22.6,1,18.7,1
5/3/2003 0:15,24.6,1,49,1,22,1,22.5,1,18.7,1
5/3/2003 0:30,24.6,1,48.8,1,22,1,22.5,1,18.7,1
5/3/2003 0:45,24.5,1,48.7,1,21.9,1,22.4,1,18.7,1
5/3/2003 1:00,24.5,1,48.5,1,21.9,1,22.4,1,18.8,1
5/3/2003 1:15,24.4,1,48.1,1,21.9,1,22.3,1,18.8,1
5/3/2003 1:30,24.4,1,48,1,21.8,1,22.2,1,18.8,1
5/3/2003 1:45,24.3,1,47.9,1,21.8,1,22.2,1,18.8,1
5/3/2003 2:00,24.3,1,47.9,1,21.7,1,22.1,1,18.8,1
5/3/2003 2:15,24.2,1,48,1,21.7,1,22,1,18.9,1
5/3/2003 2:30,24.2,1,48.1,1,21.6,1,21.9,1,18.9,1
5/3/2003 2:45,24.2,1,47.7,1,21.6,1,21.8,1,17.7,1
5/3/2003 3:00,24.1,1,47.6,1,21.5,1,21.8,1,17.8,1
5/3/2003 3:15,24.2,1,49.1,1,21.5,1,21.7,1,17.9,1
5/3/2003 3:30,24.2,1,49.4,1,21.5,1,21.6,1,18,1
5/3/2003 3:45,24.2,1,49.6,1,21.5,1,21.6,1,18,1
5/3/2003 4:00,24.1,1,49.3,1,21.4,1,21.5,1,18,1
5/3/2003 4:15,24.1,1,49.2,1,21.4,1,21.4,1,18.1,1
5/3/2003 4:30,24,1,48.9,1,21.3,1,21.4,1,18,1
5/3/2003 4:45,24,1,48.8,1,21.3,1,21.3,1,18.1,1
5/3/2003 5:00,23.9,1,48.6,1,21.3,1,21.3,1,18.1,1
5/3/2003 5:15,23.9,1,48.5,1,21.3,1,21.2,1,18.1,1
5/3/2003 5:30,23.8,1,48.4,1,21.3,1,21.1,1,18.1,1
5/3/2003 5:45,23.8,1,43.9,1,21.3,1,21.1,1,18.1,1
5/3/2003 6:00,23.8,1,48.6,1,21.2,1,21,1,18.1,1
5/3/2003 6:15,23.7,1,48.9,1,21.2,1,21,1,18.1,1
5/3/2003 6:30,23.7,1,48.5,1,21.1,1,21,1,18.2,1
5/3/2003 6:45,23.6,1,48.4,1,21.1,1,21,1,18.2,1
5/3/2003 7:00,23.6,1,48.5,1,21.1,1,20.9,1,18.2,1
5/3/2003 7:15,23.6,1,48.6,1,21.1,1,20.9,1,18.2,1
5/3/2003 7:30,23.5,1,48.8,1,21.1,1,20.9,1,18.2,1
5/3/2003 7:45,23.6,1,48.8,1,21.1,1,20.9,1,18.2,1
5/3/2003 8:00,23.6,1,48.8,1,21.1,1,20.9,1,18.3,1
5/3/2003 8:15,23.6,1,48.8,1,21.1,1,20.9,1,18.3,1
5/3/2003 8:30,23.6,1,48.6,1,21.2,1,20.9,1,18.4,1
5/3/2003 8:45,23.6,1,49.1,1,21.4,1,21,1,18.4,1
5/3/2003 9:00,23.6,1,49.5,1,21.6,1,21.1,1,17.5,1
5/3/2003 9:15,23.7,1,49.9,1,21.8,1,21.2,1,17.7,1
5/3/2003 9:30,23.8,1,49.9,1,22.1,1,21.4,1,17.8,1
5/3/2003 9:45,23.9,1,50.1,1,22.3,1,21.6,1,17.9,1
5/3/2003 10:00,23.9,1,50.3,1,22.5,1,21.8,1,18,1
5/3/2003 10:15,24,1,50,1,22.8,1,21.9,1,18,1
5/3/2003 10:30,24.1,1,49.9,1,23,1,22.2,1,18.1,1
5/3/2003 10:45,24.2,1,49.2,1,23.1,1,22.4,1,18.2,1
5/3/2003 11:00,24.2,1,48.7,1,23.2,1,22.5,1,18.2,1
5/3/2003 11:15,24.3,1,48.7,1,23.4,1,22.8,1,18.3,1
5/3/2003 11:30,24.4,1,48.3,1,23.6,1,23.1,1,18.4,1
5/3/2003 11:45,24.5,1,48.8,1,23.8,1,23.4,1,17.7,1
5/3/2003 12:00,24.6,1,48.7,1,23.8,1,23.6,1,17.9,1
5/3/2003 12:15,24.7,1,48.7,1,23.9,1,23.8,1,18.1,1
5/3/2003 12:30,24.8,1,48.6,1,24,1,24.1,1,18.2,1
5/3/2003 12:45,24.9,1,48.6,1,24.1,1,24.4,1,18.3,1
5/3/2003 13:00,25,1,48.6,1,24.3,1,24.6,1,18.4,1
5/3/2003 13:15,25,1,48.3,1,24.4,1,24.9,1,18.5,1
5/3/2003 13:30,25.1,1,48.3,1,24.6,1,25.3,1,18.6,1
5/3/2003 13:45,25.2,1,48.5,1,24.8,1,25.6,1,18.7,1
5/3/2003 14:00,25.3,1,48.6,1,24.9,1,26,1,18.7,1
5/3/2003 14:15,25.4,1,48.2,1,25.1,1,26.3,1,18.8,1
5/3/2003 14:30,25.5,1,48.3,1,25.3,1,26.6,1,18.9,1
5/3/2003 14:45,25.6,1,48.3,1,25.5,1,26.9,1,19,1
5/3/2003 15:00,25.7,1,48.2,1,25.7,1,27.2,1,19,1
5/3/2003 15:15,25.9,1,48.3,1,25.8,1,27.4,1,19.1,1
5/3/2003 15:30,26,1,47.9,1,25.9,1,27.7,1,19.2,1
5/3/2003 15:45,26.1,1,47.7,1,26,1,27.9,1,19.3,1
5/3/2003 16:00,26.2,1,47.6,1,26.1,1,28.1,1,19.4,1
5/3/2003 16:15,26.3,1,47.4,1,26.2,1,28.2,1,19.5,1
5/3/2003 16:30,26.5,1,47.3,1,26.2,1,28.3,1,19.5,1
5/3/2003 16:45,26.6,1,47.7,1,26.1,1,28.4,1,19.6,1
5/3/2003 17:00,26.7,1,48.1,1,26.1,1,28.5,1,19.7,1
5/3/2003 17:15,26.8,1,48.5,1,26,1,28.5,1,19.7,1
5/3/2003 17:30,26.9,1,48.8,1,25.9,1,28.5,1,19.8,1
5/3/2003 17:45,27,1,49.1,1,25.8,1,28.4,1,19.9,1
5/3/2003 18:00,27,1,44.7,1,25.7,1,28.4,1,20,1
5/3/2003 18:15,27.1,1,50,1,25.6,1,28.1,1,20.1,1
5/3/2003 18:30,27.1,1,50,1,25.5,1,27.8,1,20.2,1
5/3/2003 18:45,27.1,1,50,1,25.4,1,27.7,1,20.2,1
5/3/2003 19:00,27.1,1,49.5,1,25.3,1,27.6,1,20.3,1
5/3/2003 19:15,27.1,1,49,1,25.1,1,27.5,1,20.4,1
5/3/2003 19:30,27.1,1,48.7,1,25,1,27.4,1,20.4,1
5/3/2003 19:45,27.1,1,48.2,1,24.9,1,27.3,1,20.5,1
5/3/2003 20:00,27,1,48.6,1,24.9,1,27.2,1,19.3,1
5/3/2003 20:15,27.1,1,49.5,1,24.9,1,27.1,1,19.1,1
5/3/2003 20:30,27.1,1,49.5,1,24.9,1,27,1,19.4,1
5/3/2003 20:45,27.1,1,50.2,1,24.8,1,26.8,1,18.5,1
5/3/2003 21:00,27.2,1,51.8,1,24.8,1,26.8,1,18.9,1
5/3/2003 21:15,27.4,1,55.4,1,24.8,1,26.7,1,19,1
5/3/2003 21:30,27.4,1,54.8,1,24.8,1,26.6,1,19.1,1
5/3/2003 21:45,27.4,1,54.1,1,24.7,1,26.5,1,19.2,1
5/3/2003 22:00,27.3,1,53.9,1,24.7,1,26.4,1,19.3,1
5/3/2003 22:15,27.3,1,53.1,1,24.7,1,26.3,1,19.4,1
5/3/2003 22:30,27.3,1,52.4,1,24.7,1,26.2,1,19.5,1
5/3/2003 22:45,27.2,1,52.3,1,24.7,1,26.1,1,19.5,1
5/3/2003 23:00,27.2,1,51.7,1,24.7,1,26,1,18.5,1
5/3/2003 23:15,27.3,1,52.6,1,24.7,1,25.9,1,18.8,1
5/3/2003 23:30,27.4,1,52.9,1,24.6,1,25.8,1,19,1
5/3/2003 23:45,27.5,1,54.1,1,24.6,1,25.7,1,19.1,1
5/4/2003 0:00,27.4,1,48.2,1,24.5,1,25.7,1,19.2,1
5/4/2003 0:15,27.4,1,52.8,1,24.5,1,25.6,1,19.3,1
5/4/2003 0:30,27.4,1,52,1,24.5,1,25.5,1,19.3,1
5/4/2003 0:45,27.3,1,51.5,1,24.5,1,25.5,1,19.4,1
5/4/2003 1:00,27.2,1,51.1,1,24.4,1,25.5,1,19.4,1
5/4/2003 1:15,27.2,1,50.9,1,24.4,1,25.4,1,18.7,1
5/4/2003 1:30,27.1,1,50.6,1,24.3,1,25.3,1,18.8,1
5/4/2003 1:45,27.1,1,50.7,1,24.3,1,25.1,1,19,1
5/4/2003 2:00,27,1,50.7,1,24.3,1,25,1,19.1,1
5/4/2003 2:15,27,1,50.5,1,24.2,1,24.9,1,19.2,1
5/4/2003 2:30,26.9,1,50.2,1,24.1,1,24.8,1,19.3,1
5/4/2003 2:45,26.8,1,49.9,1,24,1,24.7,1,19.3,1
5/4/2003 3:00,26.7,1,44.8,1,24,1,24.6,1,19.3,1
5/4/2003 3:15,26.7,1,44.6,1,23.9,1,24.5,1,19.4,1
5/4/2003 3:30,26.6,1,49.2,1,23.8,1,24.4,1,19.4,1
5/4/2003 3:45,26.6,1,49.1,1,23.7,1,24.3,1,19.4,1
5/4/2003 4:00,26.5,1,48.9,1,23.6,1,24.2,1,19.4,1
5/4/2003 4:15,26.4,1,48.9,1,23.5,1,24.1,1,19.4,1
5/4/2003 4:30,26.3,1,48.7,1,23.4,1,24,1,19.4,1
5/4/2003 4:45,26.3,1,47,1,23.4,1,23.9,1,19.5,1
5/4/2003 5:00,26.2,1,45,1,23.3,1,23.9,1,19.5,1
5/4/2003 5:15,26.1,1,48.7,1,23.2,1,23.8,1,19.5,1
5/4/2003 5:30,26,1,48.8,1,23.1,1,23.7,1,19.5,1
5/4/2003 5:45,26,1,49.5,1,23.1,1,23.7,1,19.6,1
5/4/2003 6:00,26,1,50,1,23.1,1,23.6,1,19.6,1
5/4/2003 6:15,25.9,1,50.8,1,23,1,23.6,1,19.6,1
5/4/2003 6:30,25.9,1,50.3,1,23.1,1,23.6,1,19.7,1
5/4/2003 6:45,25.8,1,45.2,1,23.1,1,23.5,1,19.7,1
5/4/2003 7:00,25.8,1,50,1,23.3,1,23.5,1,19.8,1
5/4/2003 7:15,25.8,1,50.5,1,23.4,1,23.5,1,19.8,1
5/4/2003 7:30,25.8,1,45,1,23.5,1,23.6,1,19.9,1
5/4/2003 7:45,25.8,1,49.5,1,23.7,1,23.6,1,19.9,1
5/4/2003 8:00,25.8,1,49,1,23.9,1,23.7,1,20,1
5/4/2003 8:15,25.7,1,47,1,24,1,23.8,1,18.7,1
5/4/2003 8:30,25.6,1,46.3,1,24,1,24,1,17.9,1
5/4/2003 8:45,25.7,1,46.2,1,24.1,1,24,1,18.3,1
5/4/2003 9:00,25.8,1,47.1,1,24.3,1,24.1,1,18.4,1
5/4/2003 9:15,25.9,1,47.9,1,24.4,1,24.2,1,18.5,1
5/4/2003 9:30,26,1,47.8,1,24.6,1,24.3,1,18.1,1
5/4/2003 9:45,26.1,1,48.5,1,24.8,1,24.4,1,18.4,1
5/4/2003 10:00,26.2,1,48.5,1,25,1,24.6,1,18.6,1
5/4/2003 10:15,26.2,1,47.9,1,25.2,1,24.7,1,18.8,1
5/4/2003 10:30,26.3,1,48.5,1,25.4,1,24.9,1,18.9,1
5/4/2003 10:45,26.4,1,48.3,1,25.7,1,25.1,1,19.1,1
5/4/2003 11:00,26.5,1,48.8,1,25.9,1,25.5,1,19.2,1
5/4/2003 11:15,26.7,1,49.4,1,26.2,1,25.8,1,19.3,1
5/4/2003 11:30,26.8,1,49.1,1,26.4,1,26.1,1,17.8,1
5/4/2003 11:45,26.9,1,46.3,1,26.5,1,26.5,1,18.5,1
5/4/2003 12:00,27,1,49.4,1,26.6,1,26.8,1,18.8,1
5/4/2003 12:15,27.1,1,49.5,1,26.6,1,27,1,19,1
5/4/2003 12:30,27.3,1,49.5,1,26.6,1,27.3,1,19.2,1
5/4/2003 12:45,27.4,1,49.5,1,26.6,1,27.5,1,19.3,1
5/4/2003 13:00,27.5,1,49.5,1,26.6,1,27.7,1,19.4,1
5/4/2003 13:15,27.5,1,49.2,1,26.6,1,27.8,1,19.6,1
5/4/2003 13:30,27.6,1,49.4,1,26.7,1,27.9,1,19.7,1
5/4/2003 13:45,27.7,1,49.4,1,26.8,1,28.1,1,19.8,1
5/4/2003 14:00,27.8,1,49.3,1,26.8,1,28.2,1,19.8,1
5/4/2003 14:15,27.9,1,49.4,1,26.8,1,28.3,1,19.9,1
5/4/2003 14:30,28,1,49.4,1,26.9,1,28.4,1,20.1,1
5/4/2003 14:45,28,1,49.3,1,27,1,28.6,1,20.2,1
5/4/2003 15:00,28.1,1,49.3,1,27,1,28.7,1,20.3,1
5/4/2003 15:15,28.2,1,49.1,1,27.1,1,28.8,1,20.4,1
5/4/2003 15:30,28.2,1,49,1,27.1,1,28.9,1,20.5,1
5/4/2003 15:45,28.3,1,48.7,1,27.2,1,29.1,1,20.6,1
5/4/2003 16:00,28.4,1,48,1,27.3,1,29.2,1,20.6,1
5/4/2003 16:15,28.4,1,47.8,1,27.3,1,29.3,1,20.7,1
5/4/2003 16:30,28.4,1,47.4,1,27.3,1,29.4,1,20.8,1
5/4/2003 16:45,28.5,1,47.6,1,27.3,1,29.5,1,20.9,1
5/4/2003 17:00,28.5,1,47.4,1,27.3,1,29.5,1,21,1
5/4/2003 17:15,28.6,1,47.6,1,27.2,1,29.6,1,21.1,1
5/4/2003 17:30,28.6,1,47.6,1,27.1,1,29.5,1,21.2,1
5/4/2003 17:45,28.6,1,47.8,1,27,1,29.5,1,21.3,1
5/4/2003 18:00,28.6,1,48.1,1,26.9,1,29.4,1,21.4,1
5/4/2003 18:15,28.6,1,48.6,1,26.8,1,29.3,1,21.5,1
5/4/2003 18:30,28.7,1,49.2,1,26.7,1,29.2,1,21.6,1
5/4/2003 18:45,28.7,1,49.4,1,26.6,1,29.1,1,21.7,1
5/4/2003 19:00,28.7,1,49.8,1,26.5,1,29,1,21.7,1
5/4/2003 19:15,28.7,1,50.3,1,26.5,1,28.9,1,21.8,1
5/4/2003 19:30,28.7,1,50.7,1,26.4,1,28.8,1,21.8,1
5/4/2003 19:45,28.6,1,51.1,1,26.4,1,28.7,1,21.9,1
5/4/2003 20:00,28.7,1,51.5,1,26.4,1,28.6,1,21.9,1
5/4/2003 20:15,28.7,1,51.4,1,26.3,1,28.5,1,21.9,1
5/4/2003 20:30,28.6,1,50.5,1,26.3,1,28.3,1,20.1,1
5/4/2003 20:45,28.7,1,54,1,26.2,1,28.3,1,20.4,1
5/4/2003 21:00,28.7,1,53.9,1,26.2,1,28.1,1,20.6,1
5/4/2003 21:15,28.7,1,53.1,1,26.1,1,28,1,20.8,1
5/4/2003 21:30,28.7,1,52.9,1,26.1,1,27.9,1,20.9,1
5/4/2003 21:45,28.7,1,52.5,1,26,1,27.8,1,21,1
5/4/2003 22:00,28.6,1,51.8,1,25.9,1,27.7,1,21.1,1
5/4/2003 22:15,28.6,1,51.2,1,25.9,1,27.6,1,21.2,1
5/4/2003 22:30,28.6,1,50.7,1,25.8,1,27.5,1,21.2,1
5/4/2003 22:45,28.5,1,50.4,1,25.8,1,27.4,1,21.3,1
5/4/2003 23:00,28.5,1,46.9,1,25.7,1,27.3,1,19.7,1
5/4/2003 23:15,28.4,1,49.7,1,25.7,1,27.1,1,20,1
5/4/2003 23:30,28.4,1,49.5,1,25.7,1,27,1,20.2,1
5/4/2003 23:45,28.4,1,49.9,1,25.7,1,26.9,1,19.3,1
5/5/2003 0:00,28.3,1,50,1,25.7,1,26.8,1,19.6,1
5/5/2003 0:15,28.3,1,50.6,1,25.7,1,26.7,1,19.8,1
5/5/2003 0:30,28.2,1,49.8,1,25.7,1,26.6,1,19.9,1
5/5/2003 0:45,28.2,1,51.1,1,25.7,1,26.5,1,20.1,1
5/5/2003 1:00,28.2,1,51,1,25.7,1,26.4,1,20.2,1
5/5/2003 1:15,28.1,1,50.8,1,25.6,1,26.3,1,20.3,1
5/5/2003 1:30,28.1,1,50.7,1,25.6,1,26.2,1,20.4,1
5/5/2003 1:45,28,1,50.5,1,25.6,1,26.1,1,20.4,1
5/5/2003 2:00,28,1,50.4,1,25.6,1,26,1,19.4,1
5/5/2003 2:15,28,1,51,1,25.5,1,25.9,1,19.7,1
5/5/2003 2:30,27.9,1,51.1,1,25.5,1,25.7,1,19.8,1
5/5/2003 2:45,27.9,1,51.1,1,25.4,1,25.6,1,20,1
5/5/2003 3:00,27.8,1,51,1,25.4,1,25.5,1,20.1,1
5/5/2003 3:15,27.8,1,50.8,1,25.3,1,25.4,1,20.2,1
5/5/2003 3:30,27.7,1,50.3,1,25.3,1,25.3,1,20.3,1
5/5/2003 3:45,27.6,1,49.8,1,25.2,1,25.3,1,20.4,1
5/5/2003 4:00,27.6,1,49.5,1,25.2,1,25.2,1,20.5,1
5/5/2003 4:15,27.5,1,44.3,1,25.1,1,25.1,1,20.6,1
5/5/2003 4:30,27.4,1,48.6,1,25.1,1,25,1,20.6,1
5/5/2003 4:45,27.3,1,48,1,25,1,24.9,1,20.6,1
5/5/2003 5:00,27.2,1,47.4,1,24.9,1,24.9,1,20.7,1
5/5/2003 5:15,27.1,1,46.9,1,24.9,1,24.8,1,20.7,1
5/5/2003 5:30,27,1,46.2,1,24.8,1,24.8,1,20.7,1
5/5/2003 5:45,26.9,1,45.8,1,24.8,1,24.7,1,20.8,1
5/5/2003 6:00,26.9,1,45.6,1,24.8,1,24.6,1,20.8,1
5/5/2003 6:15,26.8,1,41.1,1,24.8,1,24.6,1,20.8,1
5/5/2003 6:30,26.8,1,46.1,1,24.8,1,24.5,1,20.9,1
5/5/2003 6:45,26.6,1,44.7,1,24.7,1,24.4,1,20.9,1
5/5/2003 7:00,26,1,41.5,1,24.1,1,24,1,20.9,1
5/5/2003 7:15,25.8,1,41.3,1,23.7,1,23.8,1,18.4,1
5/5/2003 7:30,25.6,1,42.4,1,23.4,1,23.5,1,18.7,1
5/5/2003 7:45,25.5,1,41.8,1,23.3,1,23.3,1,18.8,1
5/5/2003 8:00,25.5,1,41.7,1,23.2,1,23.3,1,19,1
5/5/2003 8:15,25.5,1,42.1,1,23.2,1,23.2,1,19.1,1
5/5/2003 8:30,25.5,1,42.1,1,23.2,1,23.2,1,19.2,1
5/5/2003 8:45,25.6,1,42.2,1,23.3,1,23.2,1,18.4,1
5/5/2003 9:00,25.6,1,42.4,1,23.4,1,23.3,1,17.9,1
5/5/2003 9:15,25.6,1,42.3,1,23.7,1,23.4,1,18.2,1
5/5/2003 9:30,25.6,1,42.9,1,23.9,1,23.4,1,18.4,1
5/5/2003 9:45,25.7,1,42.8,1,24.1,1,23.5,1,18.6,1
5/5/2003 10:00,25.8,1,43.5,1,24.3,1,23.7,1,18.8,1
5/5/2003 10:15,25.8,1,43.2,1,24.5,1,23.8,1,18.9,1
5/5/2003 10:30,25.9,1,41.5,1,24.6,1,23.9,1,19,1
5/5/2003 10:45,26,1,43.3,1,24.8,1,24,1,19,1
5/5/2003 11:00,26.1,1,43.7,1,24.9,1,24.2,1,19.1,1
5/5/2003 11:15,26.2,1,43.8,1,25.1,1,24.5,1,19.2,1
5/5/2003 11:30,26.3,1,43.3,1,25.1,1,24.7,1,19.3,1
5/5/2003 11:45,26.4,1,44.4,1,25.3,1,24.9,1,19.4,1
5/5/2003 12:00,26.4,1,44,1,25.4,1,25.2,1,19.5,1
5/5/2003 12:15,26.5,1,44.1,1,25.5,1,25.6,1,19.6,1
5/5/2003 12:30,26.6,1,43.4,1,25.6,1,25.9,1,19.7,1
5/5/2003 12:45,26.6,1,42.4,1,25.8,1,26.2,1,19.9,1
5/5/2003 13:00,26.6,1,42.7,1,25.9,1,26.5,1,20,1
5/5/2003 13:15,26.7,1,43,1,26.1,1,26.8,1,20.3,1
5/5/2003 13:30,26.8,1,42.9,1,26.2,1,27.1,1,20.7,1
5/5/2003 13:45,26.8,1,42.1,1,26.4,1,27.3,1,20.8,1
5/5/2003 14:00,26.8,1,41.5,1,26.5,1,27.6,1,20.9,1
5/5/2003 14:15,26.7,1,40.5,1,26.2,1,27.8,1,21,1
5/5/2003 14:30,26.8,1,40.8,1,26.1,1,28.1,1,21.1,1
5/5/2003 14:45,26.9,1,40.4,1,26.1,1,28.3,1,21.2,1
5/5/2003 15:00,27,1,41,1,26.2,1,28.5,1,21.3,1
5/5/2003 15:15,27.1,1,41.3,1,26.3,1,28.6,1,21.3,1
5/5/2003 15:30,27.1,1,40.5,1,26.3,1,28.7,1,21.4,1
5/5/2003 15:45,27.1,1,40.6,1,26.3,1,28.8,1,21.4,1
5/5/2003 16:00,27.1,1,40.1,1,26.3,1,28.9,1,21.5,1
5/5/2003 16:15,27.2,1,39.6,1,26.2,1,29,1,21.5,1
5/5/2003 16:30,27.1,1,39,1,26,1,28.8,1,21.5,1
5/5/2003 16:45,27.1,1,39.4,1,25.8,1,28.7,1,21.5,1
5/5/2003 17:00,27.1,1,38.5,1,25.6,1,28.7,1,19.6,1
5/5/2003 17:15,26.9,1,31.8,1,25.3,1,28.6,1,19.8,1
5/5/2003 17:30,26.8,1,35.3,1,25,1,28.4,1,19.9,1
5/5/2003 17:45,26.8,1,36.5,1,24.7,1,28.3,1,19.3,1
5/5/2003 18:00,26.8,1,37.3,1,24.6,1,28.1,1,19.4,1
5/5/2003 18:15,26.8,1,37.5,1,24.6,1,27.9,1,19.6,1
5/5/2003 18:30,26.8,1,38,1,24.5,1,27.7,1,19.8,1
5/5/2003 18:45,26.8,1,38.3,1,24.4,1,27.5,1,20,1
5/5/2003 19:00,26.8,1,39.7,1,24.4,1,27.3,1,20.2,1
5/5/2003 19:15,26.7,1,38.9,1,24.3,1,27.1,1,20.3,1
5/5/2003 19:30,26.6,1,39.4,1,24.2,1,26.9,1,19.2,1
5/5/2003 19:45,26.5,1,39.3,1,24.2,1,26.8,1,19.2,1
5/5/2003 20:00,26.4,1,39,1,24.2,1,26.6,1,19.4,1
5/5/2003 20:15,26.3,1,36.3,1,24.1,1,26.5,1,19.6,1
5/5/2003 20:30,26.3,1,38.5,1,24.1,1,26.3,1,19.7,1
5/5/2003 20:45,26.3,1,38.4,1,24,1,26.1,1,19.8,1
5/5/2003 21:00,26.2,1,38.7,1,24,1,26,1,19.8,1
5/5/2003 21:15,26.3,1,40.4,1,24,1,25.8,1,19.9,1
5/5/2003 21:30,26.3,1,44,1,24,1,25.7,1,20,1
5/5/2003 21:45,26.5,1,45.4,1,24,1,25.6,1,20,1
5/5/2003 22:00,26.5,1,44,1,24.1,1,25.5,1,20.1,1
5/5/2003 22:15,26.5,1,44.6,1,24.1,1,25.4,1,19.1,1
5/5/2003 22:30,26.5,1,43.6,1,24,1,25.3,1,19.2,1
5/5/2003 22:45,26.5,1,46,1,24,1,25.2,1,19.4,1
5/5/2003 23:00,26.5,1,44.1,1,23.9,1,25.1,1,18.8,1
5/5/2003 23:15,26.5,1,44.8,1,23.9,1,25,1,19,1
5/5/2003 23:30,26.5,1,44.1,1,23.9,1,24.9,1,19.1,1
5/5/2003 23:45,26.4,1,43.6,1,23.9,1,24.8,1,19.3,1
5/6/2003 0:00,26.4,1,43.1,1,23.8,1,24.8,1,19.4,1